Regional Weather Roundup
Issued by NWS

Home | Current Version | Previous Version | Graphics & Text | Print | Product List | Glossary On
Versions: 1 2 3 4 5 6 7 8 9 10 11 12 13 14 15 16 17 18 19 20 21 22 23 24 25 26 27 28 29 30 31 32 33 34 35 36 37 38 39 40 41 42 43 44 45 46 47 48 49 50
000
ASUS45 KBOU 231310
RWRCO

WEATHER ROUNDUP FOR COLORADO
NATIONAL WEATHER SERVICE DENVER/BOULDER CO
600 AM MST TUE JAN 23 2018

NOTE: "FAIR" INDICATES FEW OR NO CLOUDS BELOW 12000 FEET WITH NO
SIGNIFICANT WEATHER AND/OR OBSTRUCTIONS TO VISIBILITY.

COZ001>005-013-030-031-231400-
...NORTHWEST COLORADO...

CITY           SKY/WX    TMP DP  RH WIND       PRES   REMARKS
CRAIG          FAIR       3  -1  83 CALM      30.30R
HAYDEN         FLURRIES  12   9  87 S5        30.28R WCI   4
MEEKER         FAIR      10   7  87 CALM      30.29R
RABBIT EARS PA LGT SNOW N/A N/A N/A W13G24    30.10R VSB 3/4
STEAMBOAT SPGS CLOUDY    11   9  90 CALM      30.26S
WALDEN         FAIR      16   7  67 SW10      30.16F WCI   3
$$

COZ006>008-011-231400-
...WEST CENTRAL VALLEYS...

CITY           SKY/WX    TMP DP  RH WIND       PRES   REMARKS
GRAND JUNCTION FAIR      17  14  88 E7        30.34R WCI   8
MONTROSE       FAIR      16  11  80 SW3       30.35R
EAGLE          FAIR      12   7  80 S7        30.31R WCI   1
RIFLE          FAIR      21  18  88 E5        30.33R WCI  15
DELTA          FAIR      20  14  77 CALM      30.35R
NUCLA          FAIR      12   5  73 E6        30.35R WCI   3
$$

COZ017>023-064>068-231400-
...SOUTHWEST COLORADO...

CITY           SKY/WX    TMP DP  RH WIND       PRES   REMARKS
DURANGO        FAIR       1  -2  87 CALM      30.24S
CORTEZ         FAIR       6   2  83 NE3       30.27S
PAGOSA SPRINGS FAIR       2  -1  89 CALM      30.22S
TELLURIDE      FAIR       9   3  76 SE8       30.23S WCI  -3
WOLF CREEK PAS FAIR      10  -8  44 CALM      30.19S
$$

COZ009-010-012-014-032>034-037-058>063-231400-
...CENTRAL COLORADO...

CITY           SKY/WX    TMP DP  RH WIND       PRES   REMARKS
ASPEN          MOCLDY    12   9  87 S3        30.22S
BUENA VISTA    FAIR      13   3  63 SW3       30.17R
COPPER MTN     NOT AVBL
BERTHOUD PASS  LGT SNOW   0 -11  60 NW36G45   30.01R VSB 3/4 WCI -28
COTTONWOOD PAS FAIR      23   5  46 W18G29    30.11S WCI   9
GUNNISON       FAIR      -7 -11  83 E5        30.31R WCI -18
KREMMLING      CLOUDY    18  12  79 CALM      30.25R
LEADVILLE      CLOUDY     7   2  80 E6        30.14R WCI  -3
MONARCH PASS   MOCLDY     3   0  85 W32       30.17S WCI -22
SALIDA         FAIR      11   5  75 N7        30.26S WCI   1
SUNLIGHT       MOCLDY     9   5  85 W3        30.21R
WILKERSON PASS   N/A      9   0  66 W9G20     30.07F WCI  -5
$$

COZ069>075-231400-
...SAN LUIS VALLEY/SANGRE DE CRISTO MOUNTAINS...

CITY           SKY/WX    TMP DP  RH WIND       PRES   REMARKS
ALAMOSA        FAIR      -7 -10  87 CALM      30.24R
DEL NORTE      FAIR       9  -4  54 W17       30.22S WCI  -9
LA VETA PASS   MOCLDY     7   0  72 SW26        N/A  WCI -16
SAGUACHE       FAIR       5   0  78 N5        30.22S WCI  -4
$$

COZ035-036-038>040-231400-
...NORTHERN COLORADO FRONT RANGE...

CITY           SKY/WX    TMP DP  RH WIND       PRES   REMARKS
DENVER INTL AP FAIR      23   7  50 SW3       30.14S
DMNS CITY PARK NOT AVBL
AURORA         MOCLDY    29   8  41 W9        30.15R WCI  20
FRONT RANGE AP FAIR      22   9  58 S5        30.15R WCI  16
ERIE MUNI ARPT FAIR      13   8  79 CALM      30.21R
BOULDER MUN AP FAIR      27  10  50 NW6       30.15R WCI  20
CENTENNIAL     FAIR      22   5  48 SW10      30.14R WCI  11
BROOMFIELD     FAIR      28   9  43 W8        30.14R WCI  20
FORT COLLINS   FAIR      14   7  73 VRB5      30.16R WCI   6
LONGMONT       FAIR      19  10  68 W5        30.18R WCI  12
$$

COZ041-046-047-076>085-087-088-231400-
...PIKES PEAK/PALMER DIVIDE AND SOUTHERN FOOTHILLS...

CITY           SKY/WX    TMP DP  RH WIND       PRES   REMARKS
COLO. SPRINGS  FAIR      16   5  62 NE7       30.15S WCI   6
A. F. ACADEMY  FAIR      13   1  60 N6        30.13S WCI   3
SCHRIEVER AFB  FAIR      14   4  64 CALM      30.16R
CHEYENNE MTN   FAIR      23   4  42 CALM      30.07S
ELLICOTT         N/A    N/A N/A N/A CALM      30.14R
FALCON         FAIR      17   3  52 NW7       30.14S WCI   8
FORT CARSON    FAIR      18   5  57 NW6       30.14R WCI  10
LIMON          FAIR       5   1  83 N8        30.16R WCI  -8
MONUMENT HILL  FAIR      16   1  53 SW8       30.14S WCI   5
CANON CITY     FAIR      25  10  54 NW13      30.16S WCI  13
WALSENBURG     NOT AVBL
TRINIDAD       FAIR      14   3  61 S5        30.18R WCI   6
$$

COZ042>045-048>051-090-091-231400-
...NORTHEAST COLORADO...

CITY           SKY/WX    TMP DP  RH WIND       PRES   REMARKS
GREELEY ARPT   FAIR      10   7  87 CALM      30.17R
AKRON          FAIR      17  10  74 W13       30.15R WCI   4
BURLINGTON     FAIR      18   9  68 W13       30.16R WCI   5
WRAY           FAIR      25  19  80 W12       30.15S WCI  14
YUMA           PTSUNNY   21  14  73 W9        30.16R WCI  11
STERLING       FAIR      27  19  74 NW12      30.15R WCI  16
HOLYOKE        FAIR      32  23  69 NW13      30.14S WCI  22
FORT MORGAN    FAIR      18  10  71 W9        30.17R WCI   7
$$

COZ086-089-092>099-231400-
...SOUTHEAST COLORADO...

CITY           SKY/WX    TMP DP  RH WIND       PRES   REMARKS
PUEBLO         FAIR      13   8  81 CALM      30.18R
LA JUNTA       FAIR      19   9  65 NW7       30.20R WCI  10
LAMAR          FAIR       7   2  80 SW3       30.20R
SPRINGFIELD      N/A      7   3  84 W3        30.18S
$$



USA.gov is the U.S. government's official web portal to all federal, state and local government web resources and services.